Wind_Speed
35 33 33 32 31 31 32 33 33 31 31 29 29 30 31 32 32 32 32 35 37 38 40 41 42 44 45 46 46 48 50 51 50 50 50 50 50 49 48 47 46 45 45 45
36 34 34 34 32 33 33 33 34 33 30 28 29 29 30 31 33 34 34 35 37 39 40 41 42 43 44 46 47 50 51 51 51 52 52 52 51 50 48 47 47 46 45 45
37 35 37 35 32 32 33 33 34 33 31 30 29 28 29 30 31 33 34 35 37 39 40 41 42 43 44 46 49 50 51 51 51 51 52 52 52 51 49 47 47 47 46 45
39 37 38 34 32 33 34 33 33 33 32 31 30 29 29 29 30 31 33 35 36 38 40 41 42 43 44 46 49 51 50 51 51 50 49 50 51 51 50 49 47 46 46 45
39 39 39 34 32 33 34 33 31 32 31 31 30 30 30 30 30 31 32 34 36 38 39 40 41 43 44 46 47 48 49 49 51 50 49 48 50 50 50 49 48 46 46 45
38 38 38 34 33 33 34 33 30 31 30 30 30 31 30 31 31 31 32 33 35 38 40 41 42 43 44 45 46 48 47 49 51 51 50 49 50 50 50 49 48 47 47 46
37 38 37 34 34 34 34 33 33 32 31 31 31 31 32 32 32 32 33 34 35 36 38 41 43 44 44 44 46 47 48 48 50 52 51 51 50 50 50 49 48 47 47 46
37 38 37 35 36 36 35 35 34 33 32 31 31 32 32 32 32 33 32 33 34 35 37 39 43 45 46 45 46 47 48 49 49 50 52 52 51 51 50 50 48 46 45 44
38 37 35 36 37 36 36 35 35 34 33 32 32 31 32 32 33 33 33 33 34 35 36 37 40 43 45 46 47 47 48 49 49 50 51 52 52 51 50 50 49 47 45 44
38 36 36 36 37 37 36 35 34 34 33 33 32 31 30 31 32 33 34 35 35 36 37 37 38 41 43 45 47 47 47 47 48 48 48 49 50 50 49 48 48 47 46 45
39 37 37 36 35 35 35 34 33 33 32 32 31 30 30 31 31 31 32 34 35 36 38 38 38 39 41 44 46 47 47 46 47 47 47 48 48 48 47 47 47 46 45 44
38 36 36 35 35 35 34 33 33 32 31 31 31 30 29 30 31 31 32 33 34 35 35 36 36 37 39 42 44 46 47 47 47 46 45 46 47 48 48 47 46 46 45 44
37 36 37 36 35 35 34 33 33 32 31 30 30 30 29 29 29 30 31 32 33 34 34 34 34 35 37 39 41 44 46 47 48 47 46 46 47 47 48 47 47 46 44 43
35 36 36 35 35 33 33 32 32 31 31 30 30 29 28 28 28 28 28 29 31 32 33 33 33 34 35 36 38 40 43 45 47 47 47 45 45 46 47 47 47 45 44 44
34 34 34 33 32 31 31 31 31 31 31 30 29 29 28 27 27 27 27 27 28 30 32 32 33 33 34 35 37 38 40 42 44 45 45 44 44 45 45 46 46 45 45 44
33 32 31 30 29 29 29 29 29 29 29 29 28 28 28 28 27 27 27 27 27 28 28 30 31 33 34 35 36 37 38 39 41 43 44 44 44 44 44 44 44 45 44 43
30 29 29 28 27 27 28 28 28 27 27 27 28 27 27 27 28 27 26 26 26 26 26 27 29 31 33 34 35 36 36 37 39 41 42 43 43 43 43 43 43 44 42 41
28 27 27 27 27 27 27 28 27 26 26 26 27 27 26 26 26 26 25 25 25 25 26 27 27 29 31 33 33 35 36 37 38 38 40 41 42 43 42 42 41 42 42 41
27 27 27 26 26 27 26 26 25 24 24 25 25 25 24 25 25 25 25 25 25 25 26 26 27 27 28 31 32 33 35 36 37 38 38 38 39 40 41 41 41 41 41 40
26 26 26 26 26 27 26 25 24 23 22 23 23 23 23 23 24 25 25 25 25 26 26 26 26 27 28 29 31 32 33 35 36 36 36 37 37 38 38 39 39 39 39 38
27 26 26 26 26 26 25 25 24 23 23 23 23 23 23 24 24 24 24 24 24 25 25 25 26 27 28 28 29 31 32 33 34 34 35 35 35 35 35 36 36 36 37 36
27 27 26 26 26 25 25 24 24 24 24 23 23 23 23 23 23 23 23 23 23 23 24 25 26 26 27 27 27 28 29 31 33 34 34 34 33 33 33 33 33 34 34 34
27 27 26 25 25 25 24 24 24 24 23 23 23 23 23 22 22 22 22 23 23 23 23 24 25 25 25 27 27 27 28 30 31 33 33 33 32 32 31 31 31 32 33 32
26 26 25 24 24 24 23 23 22 22 21 21 21 21 21 21 22 22 22 23 23 22 22 23 24 24 24 25 26 26 26 28 29 30 31 31 31 31 30 30 30 30 30 30
25 24 24 23 23 23 23 22 21 21 20 20 21 21 21 21 21 22 22 22 23 23 22 22 23 23 22 23 24 24 25 25 27 28 29 29 29 29 29 28 28 28 28 28
24 23 22 22 22 22 22 21 21 20 20 20 20 20 20 20 19 19 20 21 21 21 21 20 21 22 22 21 22 23 24 25 26 26 27 28 28 27 27 27 27 27 27 27
23 22 22 21 21 21 20 20 20 19 19 19 18 18 17 17 16 16 16 17 18 18 18 18 19 20 21 21 21 22 24 25 25 26 27 27 27 26 27 27 28 27 27 27
Wind_Direction
299 298 292 289 289 289 286 287 288 288 284 284 280 274 267 262 258 254 248 243 240 239 238 235 233 231 228 228 228 227 226 225 225 225 227 228 228 230 231 233 235 237 240 242
297 295 291 290 291 288 286 287 287 286 284 282 279 275 269 264 260 255 250 244 241 238 237 235 235 232 229 229 229 228 227 227 226 227 228 229 229 230 232 232 235 237 240 243
294 291 289 291 293 291 289 287 286 285 284 281 280 277 270 266 262 257 252 247 242 239 237 236 236 234 230 230 230 229 229 228 228 227 228 229 228 229 231 232 235 237 240 242
292 290 288 294 292 291 290 289 286 284 282 279 278 275 271 267 264 260 256 251 245 242 238 236 236 234 232 231 231 230 229 228 227 226 227 228 229 231 231 232 235 237 240 242
292 291 291 292 292 291 290 289 287 283 281 278 275 273 269 265 263 261 258 253 247 243 241 237 236 234 234 232 232 232 230 228 226 225 227 229 230 232 233 234 235 237 239 242
291 291 292 295 294 292 290 289 287 284 280 277 275 272 269 266 263 260 257 254 250 246 243 240 237 235 235 235 234 232 232 232 229 226 228 229 230 232 234 236 237 238 240 241
288 288 291 295 293 292 290 291 289 285 280 278 275 273 270 267 264 262 259 254 251 248 245 241 238 236 236 235 234 233 233 234 232 229 229 230 231 232 234 236 237 238 240 241
285 286 291 292 291 291 291 289 288 285 281 277 275 272 269 267 265 262 259 255 251 248 245 241 239 237 236 236 236 234 234 234 233 233 232 232 233 233 234 236 237 238 238 239
283 286 288 287 287 288 288 288 288 285 282 277 275 272 269 266 263 261 258 256 252 248 246 243 241 239 237 237 236 235 234 234 234 234 234 235 235 234 235 235 236 238 238 239
282 283 283 283 285 287 287 287 286 285 282 278 275 272 270 268 264 261 259 256 253 251 248 246 243 241 239 238 237 236 235 235 235 235 234 234 234 234 235 236 237 239 240 241
283 283 281 282 284 285 286 285 285 283 282 279 275 273 271 269 265 262 259 256 254 251 248 246 245 243 240 238 237 236 235 234 234 235 235 234 234 234 234 236 237 239 240 242
282 282 282 283 284 284 283 283 283 281 280 276 273 273 272 269 265 262 259 256 254 252 248 247 246 244 241 239 237 236 235 234 233 234 235 234 234 234 234 235 235 236 238 240
279 279 281 282 283 282 281 281 281 279 278 274 273 273 273 270 266 263 260 258 254 252 248 247 245 243 241 239 237 235 234 233 233 233 234 234 233 233 233 233 234 235 237 238
279 280 281 281 281 281 281 281 281 279 276 274 272 273 272 269 266 264 262 259 255 252 248 246 244 242 241 240 238 235 233 232 232 233 233 233 234 233 233 232 232 233 234 236
279 280 281 281 279 279 280 279 279 279 277 275 272 272 271 268 265 263 261 259 255 251 248 245 243 242 241 239 238 235 234 231 231 232 233 234 235 234 233 232 231 232 233 235
279 280 280 280 279 280 281 279 277 276 276 275 272 270 269 267 265 263 261 259 256 251 247 245 243 241 241 239 237 236 234 231 231 232 233 234 234 234 232 231 231 232 233 234
278 277 278 278 279 280 281 280 278 276 275 274 271 269 268 266 264 262 260 258 254 251 247 246 244 242 240 238 236 234 233 231 231 231 232 233 233 232 231 230 231 231 232 233
277 276 276 277 279 280 281 281 280 277 274 273 272 270 268 265 263 261 259 256 253 251 248 246 244 242 239 237 236 234 232 232 231 231 232 231 230 230 229 230 230 232 233 234
277 276 276 278 280 282 282 282 281 278 276 275 272 270 267 264 262 261 258 255 252 250 249 246 244 242 240 238 236 234 232 231 231 231 230 228 228 228 227 228 229 231 233 234
278 278 277 278 280 281 282 281 281 279 276 275 272 269 266 264 262 261 259 256 252 249 247 245 244 241 241 239 237 234 232 229 229 228 227 227 227 227 227 226 226 228 230 231
279 279 278 278 280 281 280 279 279 277 274 274 272 270 267 265 265 263 260 257 253 250 247 245 244 241 240 239 237 234 232 229 226 225 225 224 225 224 224 223 224 225 227 226
279 279 278 278 279 278 277 277 276 275 274 272 272 271 269 267 265 263 259 255 251 250 248 245 243 240 238 236 236 233 231 229 226 224 223 223 222 221 221 221 221 222 223 223
278 278 278 278 278 278 277 277 277 276 275 273 272 271 269 267 265 261 258 253 250 250 248 245 242 238 236 233 233 232 230 228 224 221 220 219 217 217 218 218 219 220 221 221
277 278 277 276 277 277 277 278 278 276 274 272 271 270 268 266 265 263 258 252 250 251 249 245 240 236 233 231 230 230 227 223 220 218 216 214 213 213 214 214 215 217 218 218
276 276 275 274 275 275 275 277 277 276 274 272 272 271 269 268 265 261 258 253 249 248 246 242 237 232 230 228 224 222 220 217 214 211 210 210 210 210 210 210 211 213 214 215
275 273 273 274 275 275 276 277 277 275 273 272 272 272 271 270 268 263 257 251 246 243 240 236 233 228 224 220 217 217 215 212 209 209 209 208 207 207 208 208 209 211 212 212
273 272 272 273 274 275 277 278 277 276 273 270 269 270 269 268 265 261 254 246 239 233 228 226 223 218 216 215 213 212 210 208 208 208 208 207 207 208 209 209 208 208 210 210
Height
5543 5541 5538 5536 5535 5533 5529 5527 5524 5524 5523 5523 5521 5520 5520 5520 5522 5524 5526 5529 5531 5535 5539 5543 5548 5553 5559 5565 5571 5577 5584 5591 5598 5605 5612 5620 5627 5633 5640 5645 5651 5657 5662 5668
5535 5533 5529 5528 5528 5525 5522 5519 5517 5515 5516 5515 5513 5512 5511 5512 5513 5515 5517 5520 5523 5526 5530 5534 5539 5544 5549 5556 5562 5568 5575 5581 5588 5595 5602 5610 5617 5623 5630 5636 5642 5647 5653 5658
5525 5524 5520 5520 5521 5517 5514 5512 5509 5507 5509 5506 5505 5504 5503 5504 5505 5506 5508 5511 5514 5518 5522 5526 5530 5535 5540 5546 5552 5558 5565 5571 5578 5585 5592 5599 5606 5612 5619 5626 5632 5637 5643 5648
5515 5514 5510 5515 5511 5508 5505 5503 5501 5499 5499 5498 5496 5496 5496 5496 5496 5498 5499 5502 5504 5508 5512 5516 5520 5525 5530 5536 5542 5548 5554 5561 5568 5575 5582 5588 5595 5602 5609 5616 5622 5627 5633 5638
5506 5502 5501 5505 5503 5499 5496 5495 5493 5490 5490 5489 5488 5487 5488 5488 5488 5489 5491 5493 5495 5498 5502 5506 5510 5515 5520 5525 5531 5537 5544 5550 5557 5564 5571 5578 5585 5591 5598 5605 5611 5617 5622 5628
5497 5493 5491 5496 5493 5489 5487 5486 5485 5482 5481 5480 5479 5479 5480 5479 5480 5480 5482 5483 5485 5488 5492 5496 5500 5505 5510 5515 5521 5527 5533 5539 5546 5553 5560 5567 5575 5581 5588 5594 5601 5606 5612 5618
5489 5484 5483 5487 5483 5480 5479 5479 5475 5473 5471 5471 5470 5470 5470 5470 5471 5471 5472 5474 5476 5479 5482 5486 5490 5495 5500 5505 5511 5517 5523 5529 5536 5543 5550 5557 5564 5571 5577 5584 5590 5596 5602 5607
5480 5476 5478 5477 5473 5471 5470 5467 5465 5463 5462 5462 5461 5461 5461 5461 5461 5462 5463 5464 5466 5469 5472 5475 5479 5484 5489 5494 5500 5506 5512 5519 5525 5531 5538 5545 5552 5559 5566 5572 5578 5584 5590 5596
5471 5471 5470 5466 5463 5461 5459 5457 5455 5453 5453 5452 5451 5451 5451 5451 5451 5452 5453 5455 5457 5459 5462 5465 5469 5473 5479 5484 5489 5495 5501 5508 5514 5520 5527 5534 5541 5548 5554 5560 5567 5574 5579 5585
5460 5461 5459 5456 5453 5451 5449 5447 5445 5444 5443 5442 5441 5441 5441 5441 5441 5442 5443 5445 5447 5449 5452 5455 5458 5462 5467 5472 5478 5484 5490 5496 5503 5509 5515 5522 5529 5536 5543 5550 5556 5563 5569 5574
5449 5450 5447 5446 5444 5442 5439 5437 5436 5434 5433 5432 5431 5431 5431 5431 5431 5432 5433 5434 5436 5439 5442 5445 5448 5452 5456 5461 5466 5472 5479 5485 5492 5498 5505 5511 5518 5525 5532 5539 5545 5552 5558 5564
5439 5439 5436 5436 5434 5432 5430 5428 5426 5425 5424 5423 5422 5422 5422 5421 5421 5422 5423 5424 5426 5428 5431 5435 5438 5441 5445 5449 5455 5461 5467 5474 5481 5487 5494 5500 5507 5514 5520 5527 5534 5540 5547 5553
5428 5427 5425 5425 5424 5422 5420 5418 5417 5415 5414 5413 5413 5413 5412 5412 5412 5412 5413 5414 5416 5419 5421 5424 5428 5431 5435 5439 5443 5449 5456 5462 5469 5476 5483 5489 5496 5503 5509 5516 5522 5529 5536 5542
5418 5416 5415 5414 5413 5412 5410 5409 5407 5406 5405 5404 5403 5403 5403 5403 5403 5403 5404 5405 5407 5409 5411 5414 5418 5422 5425 5429 5433 5438 5444 5451 5458 5465 5472 5478 5485 5491 5498 5505 5512 5518 5525 5531
5408 5406 5405 5404 5403 5402 5401 5399 5398 5397 5395 5395 5394 5394 5393 5394 5394 5394 5395 5396 5397 5399 5402 5405 5408 5412 5415 5419 5424 5429 5434 5440 5447 5454 5460 5467 5474 5480 5487 5494 5501 5507 5514 5520
5398 5397 5396 5395 5394 5393 5391 5390 5389 5388 5386 5386 5385 5385 5384 5385 5385 5386 5386 5387 5389 5391 5393 5395 5399 5402 5406 5410 5415 5419 5424 5430 5436 5443 5450 5456 5463 5469 5476 5482 5489 5496 5502 5509
5388 5388 5387 5386 5385 5384 5383 5381 5380 5379 5378 5377 5376 5376 5376 5376 5377 5377 5378 5379 5380 5382 5384 5387 5390 5393 5397 5401 5405 5410 5415 5420 5426 5432 5439 5445 5452 5458 5465 5471 5478 5485 5491 5497
5379 5378 5378 5377 5377 5375 5374 5373 5371 5370 5369 5368 5368 5367 5367 5368 5368 5369 5369 5370 5372 5374 5376 5378 5381 5384 5388 5392 5396 5400 5406 5411 5416 5422 5428 5434 5441 5447 5453 5460 5467 5473 5479 5485
5370 5370 5370 5369 5368 5367 5366 5364 5363 5362 5361 5360 5359 5359 5359 5359 5360 5361 5361 5363 5364 5366 5368 5370 5373 5376 5379 5383 5387 5391 5396 5401 5407 5413 5418 5424 5430 5437 5443 5450 5456 5462 5468 5474
5363 5362 5361 5360 5360 5359 5357 5356 5355 5354 5353 5352 5352 5351 5351 5352 5352 5352 5353 5354 5356 5358 5360 5362 5365 5368 5371 5374 5378 5383 5387 5392 5398 5403 5409 5415 5421 5427 5433 5439 5446 5452 5458 5464
5355 5354 5353 5352 5351 5350 5349 5348 5347 5346 5345 5345 5344 5344 5344 5344 5344 5344 5345 5347 5348 5350 5352 5354 5357 5360 5363 5366 5370 5374 5379 5384 5389 5395 5401 5407 5413 5418 5424 5430 5436 5443 5449 5455
5347 5346 5345 5344 5343 5342 5341 5340 5339 5338 5337 5337 5336 5336 5336 5336 5336 5337 5338 5339 5341 5342 5344 5346 5349 5352 5355 5358 5362 5366 5371 5376 5381 5387 5393 5399 5405 5410 5416 5422 5428 5434 5440 5447
5338 5337 5336 5336 5335 5334 5333 5332 5331 5330 5329 5329 5328 5328 5328 5328 5328 5329 5330 5332 5333 5334 5336 5339 5341 5344 5348 5351 5355 5359 5364 5368 5374 5380 5386 5391 5397 5403 5409 5415 5421 5427 5433 5439
5330 5329 5328 5327 5327 5326 5325 5324 5323 5322 5322 5321 5321 5320 5320 5320 5321 5321 5322 5324 5325 5327 5329 5332 5334 5337 5341 5344 5348 5353 5357 5362 5367 5373 5379 5385 5391 5397 5403 5409 5415 5421 5427 5433
5322 5321 5320 5320 5319 5319 5318 5317 5316 5315 5315 5314 5313 5313 5313 5313 5313 5314 5315 5316 5318 5320 5322 5325 5327 5331 5334 5338 5342 5347 5351 5356 5361 5367 5373 5379 5385 5391 5397 5403 5409 5415 5421 5427
5314 5313 5313 5312 5312 5311 5310 5310 5309 5308 5307 5307 5307 5306 5305 5305 5306 5306 5307 5309 5311 5313 5316 5318 5321 5325 5329 5333 5337 5341 5346 5351 5357 5362 5368 5374 5380 5386 5392 5398 5404 5410 5415 5421
5306 5306 5306 5305 5305 5304 5303 5303 5302 5301 5300 5300 5300 5299 5299 5299 5299 5300 5301 5302 5304 5307 5310 5313 5316 5320 5324 5328 5333 5337 5342 5347 5352 5358 5364 5370 5376 5381 5387 5393 5399 5405 5411 5416